Flag for France Weather past 2 weeks in Le Havre, France

Now
59 °F

Passing clouds.


Feels Like: 56 °F
Forecast: 56 / 61 °F
Wind: 14 mph from North

Location: La Heve

Current Time: Sep 1, 2015 at 6:48:51 AM

Latest Report: Sep 1, 2015 at 6:00 AM


Visibility: N/A

Pressure: 29.98 "Hg

Humidity: 88%

Dew point: 55 °F

Location of Le HavreLocation

Historic Weather in Le Havre — Graph

°F

Le Havre temperature yesterday

Maximum temperature yesterday: 66 °F (at 12:00 AM)
Minimum temperature yesterday: 61 °F (at 5:00 PM)
Average temperature yesterday: 64 °F

Past Weeks' High & Low Weather Summary

 TemperatureHumidityPressure
High88 °F (Aug 22, 4:00 PM)100% (Aug 26, 8:30 PM)30.18 "Hg (Aug 26, 8:30 PM)
Low54 °F (Aug 29, 1:00 AM)31% (Aug 22, 4:00 PM)29.33 "Hg (Aug 24, 12:30 PM)
Average64 °F80%29.93 "Hg
* Reported Aug 17 5:00 AM — Sep 1 5:30 AM, Le Havre, Weather by CustomWeather, © 2015

Note: Actual official high and low records may vary slightly from our data, if they occured in-between our weather recording intervals... More about our weather records

Advertising

Le Havre weather history for previous 24 hours

 ConditionsComfort  
Time TempWeatherWind HumidityBarometerVisibility
5:30 AM
Tue, Sep 1
59 °FPassing clouds.12 mph94%29.98 "HgN/A
5:00 AM59 °FMostly cloudy.12 mph94%29.98 "HgN/A
4:30 AM59 °FMostly cloudy.13 mph94%29.98 "HgN/A
4:00 AM59 °FMostly cloudy.12 mph94%29.95 "Hg6 mi
3:30 AM59 °FPassing clouds.13 mph94%29.95 "HgN/A
3:00 AM59 °FDrizzle. Mostly cloudy.14 mph94%29.95 "HgN/A
2:30 AM59 °FMostly cloudy.13 mph94%29.95 "HgN/A
2:00 AM59 °FMostly cloudy.14 mph94%29.95 "HgN/A
1:30 AM59 °FMostly cloudy.12 mph94%29.95 "HgN/A
1:00 AM59 °FMostly cloudy.12 mph94%29.95 "HgN/A
11:30 PM
Mon, Aug 31
61 °FMostly cloudy.9 mph94%29.95 "HgN/A
11:00 PM61 °FPassing clouds.9 mph94%29.95 "HgN/A
10:30 PM61 °FLow clouds.8 mph94%29.95 "HgN/A
10:00 PM61 °FMostly cloudy.10 mph88%29.95 "HgN/A
9:30 PM61 °FMore clouds than sun.12 mph88%29.95 "HgN/A
9:00 PM61 °FOvercast.9 mph94%29.95 "HgN/A
8:30 PM61 °FLow clouds.9 mph94%29.95 "HgN/A
8:00 PM61 °FLow clouds.10 mph94%29.95 "HgN/A
7:30 PM61 °FLow clouds.10 mph94%29.92 "HgN/A
7:00 PM61 °FLow clouds.9 mph94%29.92 "HgN/A
6:30 PM61 °FLow clouds.10 mph94%29.92 "HgN/A
6:00 PM63 °FLow clouds.12 mph88%29.92 "HgN/A
5:30 PM61 °FLow clouds.12 mph94%29.92 "HgN/A
5:00 PM61 °FLow clouds.12 mph94%29.92 "HgN/A
4:30 PM63 °FMostly cloudy.9 mph94%29.92 "HgN/A
4:00 PM63 °FLow clouds.10 mph94%29.92 "Hg4 mi
3:30 PM63 °FFog.10 mph94%29.89 "HgN/A
3:00 PM63 °FFog.8 mph100%29.89 "Hg2 mi
2:30 PM63 °FFog.10 mph100%29.89 "Hg3 mi
2:00 PM63 °FFog.13 mph100%29.89 "Hg2 mi
1:30 PM64 °FFog.9 mph94%29.86 "Hg0 mi
1:00 PM66 °FLight rain. Fog.5 mph94%29.86 "Hg2 mi
12:30 PM66 °FMostly cloudy.1 mph94%29.86 "Hg6 mi
12:00 PM66 °FMostly cloudy.3 mph94%29.83 "Hg5 mi
11:30 AM66 °FFog.3 mph94%29.83 "Hg3 mi
11:00 AM64 °FLight rain. Fog.5 mph100%29.83 "Hg2 mi
10:30 AM64 °FRain. Fog.7 mph94%29.83 "Hg1 mi
10:00 AM64 °FFog.2 mph100%29.86 "Hg0 mi
9:30 AM64 °FFog.5 mph100%29.83 "Hg0 mi
9:00 AM66 °FFog.5 mph94%29.83 "Hg1 mi
8:30 AM66 °FFog.2 mph94%29.83 "Hg1 mi
8:00 AM66 °FFog.2 mph100%29.83 "Hg1 mi
7:30 AM66 °FFog.3 mph94%29.86 "Hg1 mi
7:00 AM64 °FFog.6 mph100%29.86 "Hg1 mi
6:30 AM64 °FFog.6 mph100%29.86 "Hg1 mi
6:00 AM64 °FFog.2 mph100%29.86 "Hg1 mi
Weather by CustomWeather, © 2015

See weather overviewHow to use our weather pages